Flag for Germany Weather past 2 weeks in Gerolstein, Rhineland-Palatinate, Germany

Now
62 °F

Partly sunny.


Feels Like: 62 °F
Forecast: 54 / 65 °F
Wind: 3 mph from Southeast

Location: Nuerburg-Barweiler

Current Time: Aug 27, 2014 at 5:31:53 PM

Latest Report: Aug 27, 2014 at 5:00 PM


Visibility: 44 mi

Pressure: 30.01 "Hg

Humidity: 69%

Dew point: 51 °F

Location of GerolsteinLocation

Historic Weather in Gerolstein — Graph

°F

Gerolstein temperature yesterday

Maximum temperature yesterday: 60 °F (at 1:00 PM)
Minimum temperature yesterday: 51 °F (at 4:00 AM)
Average temperature yesterday: 55 °F

Past Weeks' High & Low Weather Summary

 TemperatureHumidityPressure
High65 °F (Aug 12, 4:00 PM)99% (Aug 27, 12:00 AM)30.14 "Hg (Aug 27, 12:00 AM)
Low43 °F (Aug 24, 7:00 AM)46% (Aug 18, 4:00 PM)29.62 "Hg (Aug 26, 6:00 AM)
Average54 °F84%29.92 "Hg
* Reported Aug 12 4:00 PM — Aug 27 4:00 PM, Gerolstein, Weather by CustomWeather, © 2014

Note: Actual official high and low records may vary slightly from our data, if they occured in-between our weather recording intervals... More about our weather records

Advertising

Gerolstein weather history for previous 24 hours

 ConditionsComfort  
Time TempWeatherWind HumidityBarometerVisibility
4:00 PM
Aug 27
62 °FPartly sunny.2 mph73%30.01 "Hg43 mi
3:00 PM61 °FPartly sunny.3 mph75%30.02 "Hg43 mi
2:00 PM60 °FPartly sunny.2 mph70%30.02 "Hg43 mi
1:00 PM59 °FOvercast.3 mph80%30.02 "Hg43 mi
12:00 PM56 °FOvercast.3 mph86%30.02 "Hg43 mi
11:00 AM55 °FLow clouds.3 mph88%30.01 "Hg43 mi
10:00 AM54 °FLow clouds.2 mph91%29.99 "Hg31 mi
9:00 AM52 °FLow clouds.2 mph97%29.98 "Hg31 mi
8:00 AM51 °FLow clouds.3 mph98%29.96 "Hg11 mi
7:00 AM51 °FLow clouds.2 mph98%29.93 "Hg16 mi
6:00 AM52 °FLow clouds.2 mph98%29.91 "Hg16 mi
5:00 AM52 °FLow clouds.1 mph99%29.89 "Hg6 mi
4:00 AM53 °FLow clouds.2 mph99%29.87 "Hg14 mi
3:00 AM53 °FLow clouds.2 mph99%29.85 "Hg14 mi
2:00 AM53 °FDrizzle. Low clouds.2 mph99%29.83 "Hg11 mi
1:00 AM54 °FRain. Low clouds.2 mph98%29.80 "Hg4 mi
12:00 AM55 °FRain. Low clouds.3 mph99%29.78 "Hg2 mi
10:00 PM
Aug 26
56 °FRain. Low clouds.2 mph98%29.75 "Hg7 mi
9:00 PM56 °FDrizzle. Low clouds.3 mph98%29.73 "Hg7 mi
8:00 PM57 °FRain. Low clouds.1 mph98%29.70 "Hg1 mi
7:00 PM59 °FLight rain. Overcast.2 mph97%29.68 "Hg4 mi
6:00 PM60 °FOvercast.1 mph93%29.69 "Hg19 mi
Weather by CustomWeather, © 2014

See weather overviewHow to use our weather pages